Regional Weather Roundup
Issued by NWS

Home | Current Version | Previous Version | Text Only | Print | Product List | Glossary On
Versions: 1 2 3 4 5 6 7 8 9 10 11 12 13 14 15 16 17 18 19 20 21 22 23 24 25 26 27 28 29 30 31 32 33 34 35 36 37 38 39 40 41 42 43 44 45 46 47 48 49 50
347
ASUS45 KBOI 250610
RWRID

IDAHO REGIONAL WEATHER ROUNDUP
NATIONAL WEATHER SERVICE BOISE ID
1200 AM MDT SAT MAR 25 2017

NOTE: "FAIR" INDICATES FEW OR NO CLOUDS BELOW 12000 FEET
WITH NO SIGNIFICANT WEATHER AND/OR OBSTRUCTIONS TO VISIBILITY

IDZ012-014-250700-
SOUTHWEST IDAHO


CITY           SKY/WX    TMP DP  RH WIND       PRES   REMARKS
BOISE          CLOUDY    44  40  85 SE6       30.07R
CALDWELL       CLOUDY    43  42  97 SE3       30.07S
MOUNTAIN HOME  CLOUDY    44  44 100 CALM      30.07R
$$

IDZ016-017-250700-
SOUTHCENTRAL IDAHO


CITY           SKY/WX    TMP DP  RH WIND       PRES   REMARKS
BURLEY         LGT RAIN  45  41  86 W9        30.07S
JEROME         LGT RAIN  45  43  93 SW10      30.08R
TWIN FALLS     LGT RAIN  44  40  85 SW13      30.08R
$$

IDZ019>023-250700-
SOUTHEAST IDAHO


CITY           SKY/WX    TMP DP  RH WIND       PRES   REMARKS
IDAHO FALLS    LGT RAIN  46  36  68 S14       30.06R
POCATELLO      LGT RAIN  45  43  93 SW12      30.07S
REXBURG        CLOUDY    45  31  58 S18G28    30.04S
$$

IDZ006-010-011-018-031-032-250700-
CENTRAL IDAHO MOUNTAINS


CITY           SKY/WX    TMP DP  RH WIND       PRES   REMARKS
MCCALL         CLOUDY    34  31  88 S5        30.02R WCI  30
HAILEY         DRIZZLE   36  34  93 CALM      30.07R
STANLEY          N/A     33  32  96 W3        30.05R
SALMON         CLOUDY    45  36  70 S12       29.94S
CHALLIS        CLOUDY    42  36  79 CALM      29.99R
$$

IDZ002-004-006-007-026-250700-
NORTHERN IDAHO


CITY           SKY/WX    TMP DP  RH WIND       PRES   REMARKS
LEWISTON       PTCLDY    44  37  76 W7        30.03R
LOWELL           N/A     42  40  92 CALM      30.08R
COEUR D`ALENE  CLOUDY    42  40  92 S7        29.98R
MULLAN PASS    CLOUDY    28  28 100 CALM      29.93R
$$




USA.gov is the U.S. government's official web portal to all federal, state and local government web resources and services.